Weather History for Salida, CO

Change the Weather History Date:

Sunday, May 12, 2013

  Actual Average (KGUC) Record (KGUC)
Temperature  
Mean Temperature 58 °F -  
Max Temperature 73 °F 61 °F 71 °F (2001)
Min Temperature 43 °F 29 °F 19 °F (1999)
Degree Days  
Heating Degree Days 7    
Growing Degree Days 8 (Base 50)    
Moisture  
Dew Point 29 °F    
Average Humidity 38    
Maximum Humidity 72    
Minimum Humidity 13    
Precipitation  
Precipitation 0.00 in - - ()
Sea Level Pressure  
Sea Level Pressure 30.43 in    
Wind  
Wind Speed 6 mph (NW)    
Max Wind Speed 17 mph    
Max Gust Speed 26 mph    
Visibility 10 miles    
Events      
Averages and records for this station are not official NWS values.
T = Trace of Precipitation, MM = Missing Value Source: NWS Daily Summary

Daily Weather History Graph

Daily Weather History Graph

Search for Another Location

Airport:

Trip Planner

Search our weather history database for the weather conditions in past years. The results will help you decide how hot, cold, wet, or windy it might be!

Date:

Astronomy

May. 12, 2013 Rise Set
Actual Time 5:54 AM MDT 8:06 PM MDT
Civil Twilight 5:25 AM MDT 8:36 PM MDT
Nautical Twilight 4:49 AM MDT 9:12 PM MDT
Astronomical Twilight 4:09 AM MDT 9:52 PM MDT
Moon 7:52 AM MDT (5/12) 10:35 PM MDT (5/12)
Length of Visible Light 15h 10m
Length of Day
14h 11m
Waxing Crescent, 7% of the Moon is Illuminated
May 12
Waxing Crescent
May 17
First Quarter
May 24
Full
May 31
Last Quarter
Jun 8
New

Hourly Weather History & Observations

Time (MDT) Temp. Windchill Dew Point Humidity Pressure Visibility Wind Dir Wind Speed Gust Speed Precip Events Conditions
12:15 AM 46.4 °F 45.2 °F 33.4 °F 61% 30.50 in 10.0 mi West 3.5 mph - N/A   Clear
12:35 AM 44.4 °F 42.9 °F 34.7 °F 69% 30.49 in 10.0 mi West 3.5 mph - N/A   Clear
12:55 AM 43.9 °F 41.3 °F 35.2 °F 72% 30.49 in 10.0 mi NW 4.6 mph - N/A   Clear
1:15 AM 44.8 °F 43.3 °F 35.8 °F 71% 30.49 in 10.0 mi North 3.5 mph - N/A   Clear
1:35 AM 45.5 °F 44.2 °F 35.2 °F 67% 30.48 in 10.0 mi North 3.5 mph - N/A   Clear
1:55 AM 45.5 °F 40.8 °F 34.9 °F 66% 30.48 in 10.0 mi NNW 9.2 mph - N/A   Clear
2:15 AM 46.4 °F 44.3 °F 34.7 °F 64% 30.47 in 10.0 mi WNW 4.6 mph - N/A   Clear
2:35 AM 46.8 °F - 33.4 °F 60% 30.47 in 10.0 mi NNW 10.4 mph 20.7 mph N/A   Clear
2:55 AM 47.3 °F - 33.1 °F 58% 30.47 in 10.0 mi West 5.8 mph - N/A   Clear
3:15 AM 47.3 °F - 32.5 °F 57% 30.47 in 10.0 mi NNW 9.2 mph - N/A   Clear
3:35 AM 45.9 °F 41.7 °F 33.1 °F 61% 30.47 in 10.0 mi NW 8.1 mph - N/A   Clear
3:55 AM 47.5 °F - 32.7 °F 57% 30.48 in 10.0 mi NNW 6.9 mph - N/A   Clear
4:15 AM 47.1 °F - 32.4 °F 57% 30.48 in 10.0 mi NW 8.1 mph 19.6 mph N/A   Mostly Cloudy
4:35 AM 47.3 °F - 33.1 °F 58% 30.48 in 10.0 mi WNW 9.2 mph 16.1 mph N/A   Mostly Cloudy
4:55 AM 46.6 °F - 33.3 °F 60% 30.48 in 10.0 mi WSW 8.1 mph - N/A   Scattered Clouds
5:15 AM 45.5 °F 44.2 °F 33.8 °F 64% 30.48 in 10.0 mi NW 3.5 mph - N/A   Clear
5:35 AM 44.8 °F 41.6 °F 33.8 °F 65% 30.48 in 10.0 mi West 5.8 mph - N/A   Clear
5:55 AM 45.0 °F 43.5 °F 34.0 °F 65% 30.48 in 10.0 mi NW 3.5 mph - N/A   Scattered Clouds
6:15 AM 44.6 °F 43.1 °F 33.8 °F 66% 30.49 in 10.0 mi WNW 3.5 mph - N/A   Mostly Cloudy
6:35 AM 46.0 °F 43.9 °F 34.0 °F 63% 30.49 in 10.0 mi West 4.6 mph - N/A   Scattered Clouds
6:55 AM 45.3 °F 42.3 °F 34.5 °F 66% 30.49 in 10.0 mi North 5.8 mph - N/A   Clear
7:15 AM 47.3 °F - 33.8 °F 59% 30.49 in 10.0 mi North 4.6 mph - N/A   Clear
7:35 AM 48.0 °F - 34.0 °F 58% 30.50 in 10.0 mi NNW 3.5 mph - N/A   Clear
7:55 AM 50.2 °F - 34.5 °F 55% 30.49 in 10.0 mi Calm Calm - N/A   Clear
8:15 AM 52.3 °F - 33.8 °F 49% 30.49 in 10.0 mi Calm Calm - N/A   Clear
8:35 AM 54.1 °F - 33.8 °F 46% 30.49 in 10.0 mi NNW 3.5 mph - N/A   Clear
8:55 AM 55.6 °F - 32.5 °F 42% 30.48 in 10.0 mi North 3.5 mph - N/A   Clear
9:15 AM 56.7 °F - 32.7 °F 40% 30.48 in 10.0 mi NNW 3.5 mph - N/A   Clear
9:35 AM 58.3 °F - 32.9 °F 38% 30.47 in 10.0 mi NE 4.6 mph - N/A   Clear
9:55 AM 60.8 °F - 32.4 °F 34% 30.46 in 10.0 mi North 3.5 mph - N/A   Clear
10:15 AM 61.7 °F - 32.0 °F 33% 30.45 in 10.0 mi North 3.5 mph - N/A   Clear
10:35 AM 62.8 °F - 30.4 °F 30% 30.45 in 10.0 mi North 4.6 mph - N/A   Clear
10:55 AM 65.8 °F - 28.9 °F 25% 30.45 in 10.0 mi North 5.8 mph - N/A   Clear
11:15 AM 64.6 °F - 27.0 °F 24% 30.45 in 10.0 mi Calm Calm - N/A   Clear
11:35 AM 65.7 °F - 26.6 °F 23% 30.44 in 10.0 mi Calm Calm - N/A   Clear
11:55 AM 66.7 °F - 25.5 °F 21% 30.43 in 10.0 mi North 6.9 mph - N/A   Clear
12:15 PM 66.6 °F - 29.8 °F 25% 30.43 in 10.0 mi West 16.1 mph 24.2 mph N/A   Mostly Cloudy
12:35 PM 66.9 °F - 28.4 °F 24% 30.42 in 10.0 mi WSW 8.1 mph 17.3 mph N/A   Mostly Cloudy
12:55 PM 68.9 °F - 27.9 °F 22% 30.42 in 10.0 mi West 8.1 mph - N/A   Scattered Clouds
1:15 PM 67.5 °F - 26.4 °F 21% 30.41 in 10.0 mi Calm Calm - N/A   Mostly Cloudy
1:35 PM 69.1 °F - 24.6 °F 19% 30.40 in 10.0 mi West 8.1 mph - N/A   Overcast
1:55 PM 70.9 °F - 23.2 °F 17% 30.40 in 10.0 mi Calm Calm - N/A   Mostly Cloudy
2:15 PM 71.8 °F - 22.3 °F 16% 30.39 in 10.0 mi NW 6.9 mph - N/A   Scattered Clouds
2:35 PM 68.9 °F - 22.6 °F 17% 30.39 in 10.0 mi North 4.6 mph - N/A   Mostly Cloudy
2:55 PM 70.7 °F - 19.9 °F 15% 30.39 in 10.0 mi North 5.8 mph - N/A   Scattered Clouds
3:15 PM 72.5 °F - 20.7 °F 14% 30.38 in 10.0 mi NNW 5.8 mph - N/A   Scattered Clouds
3:35 PM 73.6 °F - 20.3 °F 13% 30.38 in 10.0 mi North 10.4 mph 16.1 mph N/A   Clear
3:55 PM 73.2 °F - 20.5 °F 14% 30.37 in 10.0 mi North 10.4 mph 18.4 mph N/A   Scattered Clouds
4:15 PM 72.9 °F - 20.7 °F 14% 30.37 in 10.0 mi NW 12.7 mph 19.6 mph N/A   Clear
4:35 PM 72.7 °F - 19.9 °F 14% 30.37 in 10.0 mi North 5.8 mph - N/A   Clear
4:55 PM 72.7 °F - 19.6 °F 13% 30.37 in 10.0 mi NW 8.1 mph - N/A   Clear
5:15 PM 73.8 °F - 19.8 °F 13% 30.35 in 10.0 mi North 8.1 mph - N/A   Clear
5:35 PM 73.0 °F - 19.8 °F 13% 30.35 in 10.0 mi North 6.9 mph - N/A   Clear
5:55 PM 70.7 °F - 20.5 °F 15% 30.35 in 10.0 mi North 4.6 mph - N/A   Clear
6:15 PM 69.3 °F - 22.5 °F 17% 30.35 in 10.0 mi North 5.8 mph - N/A   Clear
6:35 PM 72.5 °F - 21.2 °F 15% 30.35 in 10.0 mi NNE 9.2 mph - N/A   Mostly Cloudy
6:55 PM 71.6 °F - 19.4 °F 14% 30.35 in 10.0 mi North 13.8 mph 17.3 mph N/A   Overcast
7:15 PM 71.4 °F - 20.3 °F 14% 30.35 in 10.0 mi NE 17.3 mph 26.5 mph N/A   Overcast
7:35 PM 69.8 °F - 25.2 °F 19% 30.37 in 10.0 mi NNE 12.7 mph 21.9 mph N/A   Overcast
7:55 PM 67.1 °F - 24.3 °F 20% 30.37 in 10.0 mi NNE 8.1 mph 18.4 mph N/A   Overcast
8:15 PM 66.6 °F - 26.6 °F 22% 30.37 in 10.0 mi North 4.6 mph - N/A   Mostly Cloudy
8:35 PM 65.3 °F - 26.4 °F 23% 30.39 in 10.0 mi Calm Calm - N/A   Mostly Cloudy
8:55 PM 60.4 °F - 28.9 °F 30% 30.40 in 10.0 mi NW 4.6 mph - N/A   Scattered Clouds
9:15 PM 60.6 °F - 27.9 °F 29% 30.41 in 10.0 mi West 4.6 mph - N/A   Scattered Clouds
9:35 PM 58.3 °F - 29.1 °F 33% 30.42 in 10.0 mi SW 6.9 mph - N/A   Clear
9:55 PM 56.7 °F - 30.7 °F 37% 30.43 in 10.0 mi WSW 6.9 mph - N/A   Clear
10:15 PM 54.5 °F - 31.3 °F 41% 30.44 in 10.0 mi West 11.5 mph - N/A   Clear
10:35 PM 54.9 °F - 30.2 °F 39% 30.44 in 10.0 mi West 9.2 mph - N/A   Clear
10:55 PM 52.5 °F - 31.5 °F 45% 30.44 in 10.0 mi WSW 8.1 mph - N/A   Clear
11:15 PM 52.7 °F - 30.7 °F 43% 30.44 in 10.0 mi WSW 9.2 mph - N/A   Clear
11:35 PM 51.8 °F - 30.7 °F 45% 30.45 in 10.0 mi WSW 10.4 mph - N/A   Clear
11:55 PM 51.6 °F - 30.4 °F 44% 30.45 in 10.0 mi WSW 10.4 mph - N/A   Clear